TimeMDT,TemperatureF,Dew PointF,Humidity,Sea Level PressureIn,VisibilityMPH,Wind Direction,Wind SpeedMPH,Gust SpeedMPH,PrecipitationIn,Events,Conditions,WindDirDegrees,DateUTC
12:53 AM,28.0,3.0,34,30.13,10.0,Calm,Calm,-,N/A,,Clear,0,2012-10-08 06:53:00
1:53 AM,26.1,3.9,39,30.13,10.0,Calm,Calm,-,N/A,,Clear,0,2012-10-08 07:53:00
2:53 AM,24.1,3.0,40,30.14,10.0,Calm,Calm,-,N/A,,Clear,0,2012-10-08 08:53:00
3:53 AM,23.0,3.9,44,30.12,10.0,ENE,3.5,-,N/A,,Clear,60,2012-10-08 09:53:00
4:53 AM,19.9,1.9,46,30.14,10.0,NE,3.5,-,N/A,,Clear,50,2012-10-08 10:53:00
5:53 AM,19.0,1.9,47,30.14,10.0,ENE,4.6,-,N/A,,Clear,60,2012-10-08 11:53:00
6:53 AM,19.0,3.9,52,30.18,10.0,Calm,Calm,-,N/A,,Clear,0,2012-10-08 12:53:00
7:53 AM,25.0,5.0,43,30.20,10.0,Variable,3.5,-,N/A,,Clear,0,2012-10-08 13:53:00
8:42 AM,28.4,8.6,43,30.17,5.0,Calm,Calm,-,N/A,,Haze,0,2012-10-08 14:42:00
8:49 AM,30.2,8.6,40,30.17,1.8,Calm,Calm,-,N/A,,Haze,0,2012-10-08 14:49:00
8:53 AM,32.0,9.0,38,30.19,1.0,Calm,Calm,-,N/A,,Haze,0,2012-10-08 14:53:00
9:01 AM,33.8,8.6,35,30.17,2.0,Calm,Calm,-,N/A,,Haze,0,2012-10-08 15:01:00
9:09 AM,35.6,8.6,33,30.16,7.0,Calm,Calm,-,N/A,,Partly Cloudy,0,2012-10-08 15:09:00
9:53 AM,42.1,8.1,25,30.12,10.0,Calm,Calm,-,N/A,,Clear,0,2012-10-08 15:53:00
10:48 AM,51.8,6.8,16,30.13,6.0,Calm,Calm,-,N/A,,Haze,0,2012-10-08 16:48:00
10:53 AM,51.1,6.1,16,30.06,7.0,Calm,Calm,-,N/A,,Partly Cloudy,0,2012-10-08 16:53:00
11:53 AM,57.9,7.0,13,30.01,10.0,SW,6.9,-,N/A,,Clear,230,2012-10-08 17:53:00
12:53 PM,61.0,1.9,9,29.97,10.0,West,5.8,17.3,N/A,,Clear,270,2012-10-08 18:53:00
1:37 PM,64.4,-0.4,7,30.05,2.5,West,19.6,25.3,N/A,,Haze,260,2012-10-08 19:37:00
1:53 PM,64.0,-2.0,7,29.94,8.0,WSW,15.0,24.2,N/A,,Clear,240,2012-10-08 19:53:00
2:53 PM,66.0,-0.0,7,29.91,10.0,West,19.6,25.3,N/A,,Clear,270,2012-10-08 20:53:00
3:53 PM,66.0,-0.0,7,29.91,10.0,West,8.1,20.7,N/A,,Clear,280,2012-10-08 21:53:00
4:53 PM,64.9,3.0,9,29.92,10.0,WNW,12.7,24.2,N/A,,Clear,290,2012-10-08 22:53:00
5:36 PM,64.4,3.2,9,30.00,2.0,West,9.2,19.6,N/A,,Haze,280,2012-10-08 23:36:00
5:43 PM,64.4,3.2,9,30.00,1.5,NW,11.5,-,N/A,,Haze,310,2012-10-08 23:43:00
5:53 PM,63.0,3.9,10,29.94,1.8,West,11.5,20.7,N/A,,Haze,280,2012-10-08 23:53:00
6:01 PM,62.6,3.2,9,30.00,2.0,West,12.7,-,N/A,,Haze,270,2012-10-09 00:01:00
6:08 PM,62.6,3.2,9,30.00,0.8,West,10.4,-,N/A,,Haze,260,2012-10-09 00:08:00
6:19 PM,62.6,3.2,9,30.00,2.0,West,8.1,-,N/A,,Haze,280,2012-10-09 00:19:00
6:37 PM,59.0,6.8,13,30.00,6.0,SSW,9.2,-,N/A,,Haze,210,2012-10-09 00:37:00
6:53 PM,55.0,9.0,16,29.98,8.0,SW,6.9,-,N/A,,Clear,230,2012-10-09 00:53:00
8:53 PM,54.0,10.0,17,29.95,10.0,WSW,9.2,-,N/A,,Clear,250,2012-10-09 02:53:00
9:53 PM,45.0,10.0,24,29.96,10.0,NNW,6.9,-,N/A,,Clear,330,2012-10-09 03:53:00
10:53 PM,39.9,12.9,33,29.96,10.0,NNE,3.5,-,N/A,,Clear,30,2012-10-09 04:53:00
11:53 PM,35.1,9.0,34,29.96,10.0,NE,4.6,-,N/A,,Clear,40,2012-10-09 05:53:00